Theta_e
343 337 335 335 338 344 344 343 342 341 337 331 326 317 308 309 311 313 314 311 309 311 312 312 311 311 310 309 308 307 308 309 310 310 309 309 309 308 308 307 308 309 309
342 336 334 338 343 344 343 342 342 339 334 330 319 309 309 312 313 312 310 309 311 311 312 311 311 310 309 307 306 307 307 310 311 310 309 309 309 307 308 307 307 308 308
334 331 334 338 342 342 342 342 341 333 331 322 312 308 311 313 314 312 310 310 311 312 311 311 310 309 307 304 303 305 307 311 311 310 310 308 308 307 307 305 306 306 308
338 334 334 339 343 343 342 342 335 331 326 318 308 311 314 314 313 311 310 311 312 311 311 310 309 308 306 302 302 304 309 310 310 309 308 307 308 307 307 304 306 306 307
338 342 339 339 343 343 341 339 334 327 322 310 309 314 314 314 312 311 311 311 311 311 310 310 309 308 306 301 303 307 309 310 309 308 307 305 305 306 306 305 305 305 305
334 333 334 341 343 339 338 339 329 321 311 309 311 314 315 316 312 312 312 311 311 311 310 309 308 306 304 301 305 308 309 310 309 308 306 304 304 305 305 303 305 305 304
334 332 334 339 340 337 338 329 322 313 309 310 313 314 316 315 313 314 313 311 311 311 310 309 308 305 302 301 305 307 309 309 308 306 303 303 304 306 304 301 304 304 303
331 332 336 338 335 337 329 324 317 311 311 312 313 316 316 315 315 314 312 312 312 310 309 308 306 304 301 300 305 306 307 307 304 302 303 303 304 305 300 300 303 304 302
332 335 339 339 338 333 325 318 313 313 314 314 315 316 316 315 315 313 312 313 312 310 309 307 305 303 300 300 301 302 303 302 302 302 302 303 305 301 299 301 302 303 302
337 339 341 339 337 330 328 316 313 313 314 316 316 317 317 316 315 313 314 313 311 310 308 306 304 302 300 299 300 300 300 301 301 301 302 301 301 299 299 301 303 301 302
338 337 336 337 334 330 321 314 315 315 316 316 317 318 317 317 314 314 315 312 310 309 307 306 303 301 300 299 299 300 300 300 301 301 300 300 299 298 298 301 302 300 300
335 331 330 334 330 321 315 315 316 316 316 317 317 317 317 316 313 315 313 310 309 307 306 304 302 301 300 299 299 299 299 299 300 300 299 299 298 297 297 299 300 299 300
331 328 324 330 321 317 314 314 316 316 316 315 314 315 315 313 313 312 310 309 308 306 304 303 302 301 300 299 298 298 298 298 299 299 298 298 297 297 296 298 299 299 299
329 329 326 324 317 316 315 315 313 315 315 312 313 312 311 312 311 310 309 308 307 305 303 302 301 300 299 298 297 297 297 297 297 298 297 297 296 296 295 297 297 298 298
328 328 322 318 316 317 316 314 315 315 312 312 311 311 311 311 310 310 309 308 305 303 302 301 300 299 298 297 297 297 297 296 296 297 297 296 295 295 294 295 296 297 297
325 325 323 321 316 316 316 316 316 313 312 311 311 310 310 310 310 309 306 304 302 302 301 300 299 298 297 296 296 296 296 296 295 295 295 295 294 293 293 294 296 296 296
325 325 323 316 316 316 316 316 314 312 310 309 309 310 311 310 309 306 304 302 301 301 299 299 297 296 296 295 295 294 295 295 294 294 294 294 293 293 292 293 294 295 295
325 327 321 316 315 315 316 313 313 313 309 309 310 310 310 308 306 304 302 301 301 300 298 296 295 295 295 294 293 293 294 294 294 293 293 293 292 292 291 292 293 293 293
324 326 319 315 315 315 314 313 313 313 310 311 311 309 307 305 302 301 300 301 301 298 295 294 294 294 293 293 292 292 293 293 293 292 292 292 291 291 291 291 292 292 292
324 320 316 315 315 314 314 314 313 313 312 312 312 311 307 304 302 300 300 300 299 295 294 293 293 293 292 292 291 292 293 292 292 291 291 291 291 290 290 290 291 291 291
318 316 315 315 315 315 316 315 314 314 314 313 313 311 309 305 302 301 300 299 297 294 294 293 292 292 292 291 291 292 292 291 291 291 290 290 290 290 289 289 290 290 290
316 315 315 315 315 314 314 314 314 314 315 314 311 307 304 302 301 300 299 298 295 294 293 292 291 291 291 291 291 291 291 290 290 290 289 289 289 289 289 289 289 289 289
315 315 315 314 313 314 314 313 312 312 311 310 309 306 302 300 299 299 298 297 296 294 293 292 291 291 291 290 290 290 290 290 289 289 289 289 289 289 289 289 288 288 288
315 314 313 313 313 313 312 311 310 309 309 309 307 302 301 299 299 299 298 296 295 294 293 291 290 290 290 290 289 289 289 289 289 289 289 288 288 288 288 288 288 288 288
312 312 312 312 311 310 308 307 307 308 308 306 302 300 299 299 299 299 298 296 295 293 292 290 290 290 289 289 289 289 289 289 289 288 288 288 288 288 288 288 288 287 287
310 309 310 311 310 309 308 306 305 305 303 301 300 300 300 299 299 299 298 296 295 293 291 290 289 289 288 288 288 288 288 288 288 288 288 288 288 288 287 287 287 287 287
Wind_Speed
51 46 46 41 32 35 30 30 23 23 20 18 16 16 16 15 15 14 13 11 9 7 5 1 4 7 10 10 9 9 9 8 8 10 13 16 17 20 22 26 25 21 26
53 49 41 34 30 38 32 30 26 24 20 18 18 17 16 17 16 14 13 12 9 5 3 2 6 8 9 9 9 9 9 8 8 11 14 16 18 21 22 27 27 22 25
44 48 41 27 36 44 36 31 27 24 20 21 19 17 20 19 18 15 12 11 8 5 2 4 6 8 10 9 8 8 8 7 8 11 14 15 17 23 27 29 25 25 24
49 47 38 42 43 39 36 31 28 24 22 22 19 20 20 20 18 16 13 10 8 4 2 4 7 9 10 8 7 7 5 6 7 11 14 17 19 22 24 33 31 27 23
46 38 37 38 41 39 37 31 26 25 23 23 24 23 21 19 18 16 14 11 7 3 2 5 8 9 10 10 7 6 5 6 8 12 17 21 24 26 28 26 26 27 26
39 39 37 38 46 42 36 30 29 28 27 26 24 24 22 19 17 15 12 9 7 3 3 6 9 11 12 10 8 7 6 7 10 14 19 21 21 22 25 27 27 26 28
46 44 41 40 43 40 34 33 32 30 28 27 25 23 22 19 18 15 12 10 6 3 3 7 9 10 10 8 9 9 9 9 12 16 18 18 18 21 24 24 23 22 21
46 43 44 44 43 39 37 35 32 30 28 28 26 23 21 19 17 13 12 9 5 2 4 7 9 10 8 5 4 6 8 10 12 14 15 15 17 21 23 20 20 22 21
49 46 47 47 41 41 39 37 34 29 27 27 26 24 21 21 16 14 11 8 5 3 5 7 8 9 8 7 4 4 5 8 11 13 12 12 14 20 21 18 20 23 25
47 46 49 45 44 41 38 34 31 28 28 28 25 22 21 18 17 13 10 7 4 2 4 5 7 8 9 7 6 7 8 10 10 10 9 12 17 19 19 18 18 20 22
47 47 51 48 43 39 38 35 33 32 30 27 26 25 22 18 16 15 10 7 4 1 1 3 4 6 9 8 9 10 13 12 12 12 12 13 17 19 17 16 17 21 20
41 45 48 48 43 43 38 37 33 32 30 29 28 26 23 21 17 15 12 9 4 2 1 1 2 5 8 8 10 12 12 10 10 11 14 18 20 21 18 14 16 18 17
37 44 45 40 40 40 40 38 36 31 29 29 29 28 26 22 20 17 14 9 6 4 3 2 3 4 7 7 9 9 10 10 11 12 16 19 20 19 15 12 12 11 14
41 43 39 40 43 40 38 35 31 32 30 31 30 28 26 22 19 17 15 11 9 6 5 3 2 3 5 7 7 9 11 11 12 14 15 16 16 17 17 16 16 15 15
45 51 45 44 41 42 38 30 29 25 26 30 28 24 23 20 17 14 12 12 10 7 5 3 1 1 3 5 8 9 10 10 10 12 13 15 16 17 18 15 16 16 18
49 46 44 42 42 40 36 34 27 20 22 20 19 17 16 14 15 15 14 12 9 5 3 3 2 2 3 6 7 9 9 10 11 12 13 15 17 18 17 16 16 17 17
53 50 45 45 43 40 34 34 33 29 25 22 21 19 13 13 16 16 16 14 10 5 2 4 5 5 5 6 7 7 7 9 11 11 13 14 15 16 17 17 17 16 17
45 40 40 40 40 36 34 32 33 35 35 31 24 19 16 15 16 16 15 13 9 6 6 6 6 6 6 6 6 6 7 8 9 10 12 13 14 16 16 16 15 15 16
37 32 35 36 34 33 33 33 32 34 35 31 28 22 19 17 18 17 13 6 5 6 7 8 7 6 5 6 5 6 6 7 8 9 10 11 12 13 15 15 13 14 15
34 35 37 36 35 35 36 33 32 34 34 30 27 25 24 22 23 19 13 8 7 7 8 7 6 6 6 6 6 6 5 6 8 9 9 10 11 13 14 14 13 14 16
36 35 37 37 36 34 33 32 30 32 32 29 27 26 21 20 20 16 12 9 8 8 6 6 5 6 7 5 5 6 5 6 7 8 8 9 10 11 13 12 12 13 14
36 37 36 34 32 30 30 30 30 30 30 31 29 25 21 19 16 15 12 11 11 9 6 6 5 6 6 6 5 5 5 6 7 7 7 7 8 9 10 11 11 12 14
36 37 34 30 29 29 30 29 29 29 29 28 25 23 23 21 17 15 13 12 9 7 6 6 6 6 5 5 5 5 4 5 6 6 6 6 6 8 9 10 11 11 12
31 31 30 27 26 26 26 26 26 26 25 23 24 25 25 21 18 15 12 11 10 9 7 7 7 6 6 6 5 5 5 5 6 5 6 6 6 7 7 9 10 10 10
27 25 24 23 22 21 21 22 23 23 24 26 27 26 24 20 16 14 13 12 10 8 8 9 8 7 7 6 6 5 5 4 5 5 4 5 5 5 6 8 9 9 8
24 25 23 23 19 17 16 18 20 23 26 26 25 24 21 19 14 12 12 12 10 9 9 9 9 8 7 6 5 4 3 4 3 3 3 3 4 5 6 7 8 8 9
Wind_Direction
198 202 209 207 194 200 202 200 202 205 201 199 200 201 191 180 167 170 166 153 151 151 139 40 7 348 349 348 347 339 345 342 332 359 4 8 7 5 4 5 5 4 8
203 210 202 201 193 196 198 195 200 196 197 199 197 191 182 176 167 169 160 148 149 148 119 24 355 351 354 350 351 335 343 332 348 360 1 5 3 2 2 7 4 8 11
197 202 205 201 198 198 194 194 191 192 192 192 192 187 183 172 167 162 163 152 154 150 103 8 357 2 2 349 348 342 352 342 354 356 357 358 1 3 0 2 7 11 14
206 204 197 206 196 193 193 193 185 192 192 193 187 183 180 173 165 165 159 154 151 140 78 6 3 8 4 351 338 353 353 351 11 1 3 4 6 6 3 3 9 12 12
186 185 187 198 195 192 192 187 186 191 192 192 183 177 177 177 164 164 156 151 150 131 29 10 7 2 6 358 351 4 5 26 9 9 9 11 11 11 7 8 8 11 18
190 193 199 200 195 188 186 188 187 189 186 186 180 179 177 175 160 159 155 151 146 123 20 13 7 3 6 4 19 30 23 20 14 8 8 13 12 6 2 5 7 9 12
190 197 208 202 189 187 187 182 187 186 184 179 177 178 177 172 163 163 154 148 150 114 32 20 13 9 7 3 18 11 17 20 11 7 12 11 9 1 352 358 9 12 10
191 200 205 202 186 183 181 186 185 181 179 175 175 177 174 175 171 164 158 145 156 123 39 24 19 19 15 30 20 343 357 1 7 17 13 8 2 352 351 357 358 6 21
197 194 196 190 185 182 183 184 180 177 175 174 174 175 174 178 172 169 159 155 167 79 34 27 24 27 32 48 41 16 5 17 19 17 9 1 355 353 354 6 11 10 18
199 191 189 189 185 186 190 183 179 179 174 174 172 175 181 183 172 168 164 167 166 67 37 23 23 34 35 34 48 46 49 40 33 21 13 2 3 1 4 14 18 17 18
190 189 185 185 183 190 184 181 178 176 174 173 177 179 183 190 177 173 171 178 170 125 67 31 27 35 31 28 43 44 45 30 18 4 4 10 13 14 14 16 17 14 17
189 184 184 180 182 186 180 175 179 176 176 178 185 186 185 187 185 181 182 184 174 197 89 108 75 36 24 31 39 43 40 25 14 10 13 20 18 18 16 14 11 11 22
189 188 180 176 182 184 179 178 174 179 182 183 186 181 181 177 173 179 185 186 194 190 156 157 82 30 18 34 46 47 44 38 25 24 26 24 17 10 15 28 26 20 18
169 179 181 178 182 182 181 177 176 181 184 183 180 180 181 176 180 182 187 188 196 184 163 147 87 7 17 40 44 51 48 40 35 31 30 24 17 15 22 27 27 28 34
189 182 183 180 182 181 179 175 181 184 190 182 179 183 183 179 181 183 191 191 186 176 164 152 191 7 41 61 57 51 52 44 39 34 28 25 22 22 29 33 33 28 40
165 168 177 182 184 182 176 171 174 179 176 177 174 179 172 181 183 181 182 178 172 172 158 196 207 154 111 82 64 64 57 48 41 31 27 24 23 25 31 41 39 34 39
169 174 180 181 181 177 173 174 164 163 163 165 169 165 172 181 173 176 175 174 170 181 212 203 179 148 123 89 71 72 67 56 41 30 29 28 27 25 32 41 44 40 39
176 180 180 182 179 174 176 175 166 161 165 166 164 164 161 173 174 174 176 177 179 170 176 180 161 141 114 86 80 79 73 61 41 34 30 26 27 26 36 45 46 42 33
183 187 185 182 178 176 176 170 167 169 169 168 167 167 170 174 171 172 173 179 174 165 166 168 148 138 113 98 91 91 83 65 47 40 36 33 28 32 43 49 46 40 33
183 183 180 179 174 178 174 170 172 175 174 176 180 183 179 178 173 174 173 169 163 165 162 149 134 126 109 106 106 108 92 69 51 43 38 36 31 31 43 48 47 38 36
170 173 175 172 173 175 175 179 181 181 183 188 191 191 190 183 177 177 174 166 163 162 144 132 135 121 113 113 113 108 94 68 55 47 47 41 37 36 44 48 47 45 37
164 167 171 171 171 174 175 179 184 187 190 186 184 187 184 179 180 182 181 176 167 162 145 136 131 117 118 117 119 110 88 65 55 52 48 47 48 44 48 51 53 50 45
164 163 163 166 167 171 175 176 177 178 180 183 186 185 180 175 181 188 186 178 172 167 154 145 136 129 132 133 126 111 90 71 67 70 65 56 50 49 45 45 50 48 45
157 157 157 162 171 174 175 178 181 182 182 186 187 182 174 174 178 180 182 181 179 172 162 163 153 145 157 148 136 124 108 81 73 70 70 58 42 44 45 46 50 47 41
149 145 150 160 169 176 180 186 186 184 187 187 182 181 176 174 173 175 178 177 176 169 165 164 162 162 163 158 147 139 122 90 78 81 71 60 47 43 39 41 47 51 47
160 154 149 152 153 160 168 174 178 180 178 177 179 182 182 178 178 180 180 177 173 174 173 167 168 171 168 163 157 147 122 98 91 94 99 52 45 48 43 37 38 37 36